Flag for U.S.A. Weather past 2 weeks in Redmond, Washington, U.S.A.

Now
81 °F

Passing clouds.


Feels Like: 81 °F
Forecast: 64 / 83 °F
Wind: 7 mph from Southeast

Location: Seattle Boeing Field

Current Time: Aug 3, 2015 at 3:12:50 PM

Latest Report: Aug 3, 2015 at 1:53 PM


Visibility: 10 mi

Pressure: 29.90 "Hg

Humidity: 39%

Dew point: 54 °F

Location of RedmondLocation

Historic Weather in Redmond — Graph

°F

Redmond temperature yesterday

Maximum temperature yesterday: 90 °F (at 5:53 PM)
Minimum temperature yesterday: 64 °F (at 5:53 AM)
Average temperature yesterday: 76 °F

Past Weeks' High & Low Weather Summary

 TemperatureHumidityPressure
High97 °F (Jul 19, 3:53 PM)85% (Jul 25, 12:53 AM)30.28 "Hg (Jul 25, 12:53 AM)
Low56 °F (Jul 27, 5:53 AM)14% (Jul 31, 3:53 PM)29.85 "Hg (Jul 22, 5:53 PM)
Average72 °F51%30.03 "Hg
* Reported Jul 19 12:53 PM — Aug 3 12:53 PM, Redmond, Weather by CustomWeather, © 2015

Note: Actual official high and low records may vary slightly from our data, if they occured in-between our weather recording intervals... More about our weather records

Advertising

Redmond weather history for previous 24 hours

 ConditionsComfort  
Time TempWeatherWind HumidityBarometerVisibility
12:53 PM
Mon, Aug 3
77 °FScattered clouds.8 mph44%29.90 "Hg10 mi
11:53 AM74 °FPartly sunny.6 mph46%29.91 "Hg10 mi
10:53 AM71 °FPartly sunny.7 mph53%29.92 "Hg10 mi
9:53 AM70 °FPartly sunny.3 mph57%29.92 "Hg10 mi
8:53 AM69 °FPartly sunny.3 mph61%29.93 "Hg10 mi
7:53 AM68 °FPartly sunny.3 mph59%29.92 "Hg10 mi
6:53 AM68 °FPartly sunny.No wind55%29.90 "Hg10 mi
5:53 AM69 °FPassing clouds.No wind53%29.89 "Hg10 mi
4:53 AM70 °FClear.No wind51%29.89 "Hg10 mi
3:53 AM71 °FClear.No wind49%29.88 "Hg10 mi
2:53 AM71 °FClear.No wind51%29.88 "Hg10 mi
1:53 AM72 °FClear.No wind52%29.87 "Hg10 mi
12:53 AM75 °FPassing clouds.No wind45%29.87 "Hg10 mi
11:53 PM
Sun, Aug 2
76 °FPassing clouds.3 mph48%29.86 "Hg10 mi
10:53 PM75 °FPassing clouds.3 mph47%29.85 "Hg10 mi
9:53 PM76 °FClear.3 mph45%29.86 "Hg10 mi
8:53 PM80 °FOvercast.5 mph38%29.86 "Hg10 mi
7:53 PM83 °FOvercast.No wind37%29.87 "Hg10 mi
6:53 PM85 °FOvercast.No wind34%29.87 "Hg10 mi
5:53 PM90 °FPartly sunny.No wind24%29.87 "Hg10 mi
4:53 PM89 °FPartly sunny.No wind23%29.88 "Hg10 mi
3:53 PM87 °FSunny.5 mph26%29.89 "Hg10 mi
Weather by CustomWeather, © 2015

See weather overviewHow to use our weather pages